Hallock, MN

1:12 AM CDT on April 26, 2017 (GMT -0500)
Hallock Municipal

Weather History for KHCO - October, 2012

Change the Weather History Date:

Monday, October 22, 2012

  Actual Average Record
Temperature  
Mean Temperature 37 °F -  
Max Temperature 44 °F 50 °F 73 °F (1953)
Min Temperature 30 °F 30 °F 2 °F (1936)
Degree Days  
Heating Degree Days 28    
Moisture  
Dew Point 36 °F    
Average Humidity 88    
Maximum Humidity 100    
Minimum Humidity 76    
Precipitation  
Precipitation 0.00 in - - ()
Sea Level Pressure  
Sea Level Pressure 30.08 in    
Wind  
Wind Speed 4 mph (NE)    
Max Wind Speed 14 mph    
Max Gust Speed 17 mph    
Visibility 10 miles    
Events Rain    
Averages and records for this station are not official NWS values.
T = Trace of Precipitation, MM = Missing Value Source: NWS Daily Summary

Daily Weather History Graph

Daily Weather History Graph

Search for Another Location

Airport or City:

Trip Planner

Search our weather history database for the weather conditions in past years. The results will help you decide how hot, cold, wet, or windy it might be!

Date:

Astronomy

Oct. 22, 2012 Rise Set
Actual Time 7:59 AM CDT 6:23 PM CDT
Civil Twilight 7:27 AM CDT 6:56 PM CDT
Nautical Twilight 6:50 AM CDT 7:32 PM CDT
Astronomical Twilight 6:14 AM CDT 8:09 PM CDT
Moon 3:03 PM CDT (10/22) 12:13 AM CDT (10/22)
Length of Visible Light 11h 28m
Length of Day
10h 24m
First Quarter, 56% of the Moon is Illuminated
Oct 22
First Quarter
Oct 29
Full
Nov 6
Last Quarter
Nov 13
New
Nov 20
First Quarter

Hourly Weather History & Observations

Time (CDT) Temp. Windchill Dew Point Humidity Pressure Visibility Wind Dir Wind Speed Gust Speed Precip Events Conditions
12:14 AM 35.6 °F 30.7 °F 33.8 °F 93% 30.07 in 10.0 mi NNW 5.8 mph - N/A   Clear
12:34 AM 33.8 °F - 33.8 °F 100% 30.08 in 10.0 mi Calm Calm - N/A   Clear
12:54 AM 35.6 °F - 33.8 °F 93% 30.08 in 10.0 mi Calm Calm - N/A   Clear
1:34 AM 32.0 °F - 32.0 °F 100% 30.08 in 10.0 mi Calm Calm - N/A   Clear
1:54 AM 32.0 °F - 32.0 °F 100% 30.08 in 10.0 mi Calm Calm - N/A   Clear
2:14 AM 32.0 °F - 30.2 °F 93% 30.08 in 10.0 mi Calm Calm - N/A   Clear
2:34 AM 33.8 °F 30.8 °F 33.8 °F 100% 30.08 in 10.0 mi North 3.5 mph - N/A   Clear
2:54 AM 33.8 °F - 32.0 °F 93% 30.09 in 10.0 mi Calm Calm - N/A   Clear
3:14 AM 33.8 °F - 32.0 °F 93% 30.09 in 10.0 mi Calm Calm - N/A   Clear
3:54 AM 30.2 °F - 30.2 °F 100% 30.09 in 7.0 mi Calm Calm - N/A   Clear
4:14 AM 32.0 °F - 32.0 °F 100% 30.10 in 10.0 mi Calm Calm - N/A   Clear
4:34 AM 32.0 °F 27.5 °F 32.0 °F 100% 30.09 in 10.0 mi North 4.6 mph - N/A   Clear
4:54 AM 33.8 °F 30.8 °F 32.0 °F 93% 30.10 in 10.0 mi North 3.5 mph - N/A   Clear
5:14 AM 33.8 °F 30.8 °F 32.0 °F 93% 30.12 in 10.0 mi NNW 3.5 mph - N/A   Clear
5:34 AM 33.8 °F 30.8 °F 30.2 °F 87% 30.12 in 10.0 mi NNW 3.5 mph - N/A   Clear
5:54 AM 33.8 °F 29.6 °F 30.2 °F 87% 30.11 in 10.0 mi NNE 4.6 mph - N/A   Clear
6:14 AM 33.8 °F 29.6 °F 30.2 °F 87% 30.12 in 10.0 mi North 4.6 mph - N/A   Clear
6:34 AM 32.0 °F 27.5 °F 30.2 °F 93% 30.12 in 10.0 mi North 4.6 mph - N/A   Clear
6:54 AM 32.0 °F 27.5 °F 30.2 °F 93% 30.12 in 10.0 mi North 4.6 mph - N/A   Clear
7:14 AM 32.0 °F - 30.2 °F 93% 30.13 in 10.0 mi Calm Calm - N/A   Clear
7:34 AM 32.0 °F - 30.2 °F 93% 30.13 in 10.0 mi Calm Calm - N/A   Clear
8:14 AM 32.0 °F - 30.2 °F 93% 30.14 in 10.0 mi Calm Calm - N/A   Clear
8:34 AM 32.0 °F 28.7 °F 30.2 °F 93% 30.15 in 10.0 mi North 3.5 mph - N/A   Clear
8:54 AM 32.0 °F 27.5 °F 30.2 °F 93% 30.14 in 10.0 mi NNE 4.6 mph - N/A   Clear
9:14 AM 33.8 °F 30.8 °F 32.0 °F 93% 30.15 in 10.0 mi NE 3.5 mph - N/A   Clear
9:34 AM 33.8 °F 30.8 °F 33.8 °F 100% 30.14 in 10.0 mi East 3.5 mph - N/A   Clear
9:54 AM 35.6 °F 30.7 °F 33.8 °F 93% 30.13 in 10.0 mi East 5.8 mph - N/A   Clear
10:14 AM 35.6 °F 30.7 °F 33.8 °F 93% 30.13 in 10.0 mi East 5.8 mph - N/A   Clear
10:34 AM 37.4 °F 34.9 °F 35.6 °F 93% 30.14 in 10.0 mi ENE 3.5 mph - N/A   Clear
10:54 AM 37.4 °F 32.8 °F 35.6 °F 93% 30.14 in 10.0 mi ENE 5.8 mph - N/A   Clear
11:14 AM 39.2 °F - 37.4 °F 93% 30.14 in 10.0 mi Calm Calm - N/A   Scattered Clouds
11:34 AM 41.0 °F 38.0 °F 37.4 °F 87% 30.14 in 10.0 mi East 4.6 mph - N/A   Mostly Cloudy
11:53 AM 42.8 °F - 37.4 °F 81% 30.14 in 10.0 mi Calm Calm - N/A   Mostly Cloudy
12:14 PM 42.8 °F 40.1 °F 37.4 °F 81% 30.13 in 10.0 mi NE 4.6 mph - N/A   Mostly Cloudy
12:34 PM 42.8 °F - 39.2 °F 87% 30.14 in 10.0 mi Calm Calm - N/A   Mostly Cloudy
12:53 PM 42.8 °F 41.1 °F 39.2 °F 87% 30.13 in 10.0 mi NE 3.5 mph - N/A   Overcast
1:14 PM 44.6 °F 43.1 °F 39.2 °F 81% 30.13 in 10.0 mi North 3.5 mph - N/A   Overcast
1:34 PM 44.6 °F 41.4 °F 39.2 °F 81% 30.12 in 10.0 mi NNE 5.8 mph - N/A   Scattered Clouds
1:53 PM 44.6 °F 40.2 °F 39.2 °F 81% 30.11 in 10.0 mi NNE 8.1 mph - N/A   Mostly Cloudy
2:14 PM 44.6 °F 39.2 °F 39.2 °F 81% 30.11 in 10.0 mi NNE 10.4 mph - N/A   Mostly Cloudy
2:34 PM 44.6 °F 39.7 °F 39.2 °F 81% 30.10 in 10.0 mi NNE 9.2 mph - N/A   Overcast
2:53 PM 44.6 °F 39.7 °F 39.2 °F 81% 30.09 in 10.0 mi NNE 9.2 mph - N/A   Overcast
3:12 PM 44.6 °F - 39.2 °F 81% 30.09 in 10.0 mi North - - N/A   Overcast
3:34 PM 44.6 °F 39.7 °F 39.2 °F 81% 30.08 in 10.0 mi NNE 9.2 mph - N/A   Overcast
3:54 PM 44.6 °F 39.2 °F 39.2 °F 81% 30.07 in 10.0 mi NNE 10.4 mph - N/A   Overcast
4:13 PM 44.6 °F 39.7 °F 39.2 °F 81% 30.07 in 10.0 mi NNE 9.2 mph - N/A   Overcast
4:34 PM 44.6 °F 39.2 °F 39.2 °F 81% 30.05 in 10.0 mi NE 10.4 mph - N/A   Overcast
4:54 PM 44.6 °F 39.7 °F 39.2 °F 81% 30.06 in 10.0 mi NE 9.2 mph - N/A   Overcast
5:13 PM 44.6 °F 38.8 °F 39.2 °F 81% 30.05 in 10.0 mi NE 11.5 mph - N/A   Overcast
5:34 PM 44.6 °F 38.8 °F 39.2 °F 81% 30.05 in 10.0 mi NE 11.5 mph - N/A   Overcast
5:54 PM 44.6 °F 39.2 °F 39.2 °F 81% 30.05 in 10.0 mi NNE 10.4 mph - N/A   Overcast
6:13 PM 44.6 °F 39.2 °F 39.2 °F 81% 30.05 in 10.0 mi NE 10.4 mph - N/A   Overcast
6:34 PM 44.6 °F 39.7 °F 39.2 °F 81% 30.05 in 10.0 mi NE 9.2 mph - N/A   Overcast
6:54 PM 44.6 °F 39.7 °F 39.2 °F 81% 30.04 in 10.0 mi NE 9.2 mph - N/A   Overcast
7:13 PM 44.6 °F 39.2 °F 39.2 °F 81% 30.04 in 10.0 mi ENE 10.4 mph - N/A   Overcast
7:34 PM 44.6 °F 38.8 °F 37.4 °F 76% 30.03 in 10.0 mi ENE 11.5 mph 17.3 mph N/A   Overcast
7:54 PM 44.6 °F 38.1 °F 37.4 °F 76% 30.02 in 10.0 mi ENE 13.8 mph 17.3 mph N/A   Overcast
8:14 PM 42.8 °F 37.0 °F 37.4 °F 81% 30.02 in 10.0 mi ENE 10.4 mph - N/A   Mostly Cloudy
8:54 PM 42.8 °F 37.0 °F 39.2 °F 87% 30.01 in 10.0 mi ENE 10.4 mph - N/A   Mostly Cloudy
9:14 PM 42.8 °F 37.0 °F 39.2 °F 87% 30.01 in 10.0 mi East 10.4 mph - N/A   Scattered Clouds
9:34 PM 44.6 °F 39.2 °F 39.2 °F 81% 30.00 in 10.0 mi East 10.4 mph - N/A   Scattered Clouds
9:54 PM 44.6 °F 39.2 °F 39.2 °F 81% 30.00 in 10.0 mi East 10.4 mph - N/A   Overcast
10:14 PM 44.6 °F 39.2 °F 39.2 °F 81% 30.00 in 10.0 mi East 10.4 mph - N/A   Overcast
10:34 PM 44.6 °F 39.7 °F 39.2 °F 81% 29.99 in 10.0 mi East 9.2 mph - N/A   Mostly Cloudy
10:54 PM 44.6 °F 38.8 °F 39.2 °F 81% 29.98 in 10.0 mi East 11.5 mph - N/A   Overcast
11:14 PM 44.6 °F 38.8 °F 39.2 °F 81% 29.98 in 10.0 mi East 11.5 mph - N/A   Drizzle
11:34 PM 44.6 °F 38.8 °F 41.0 °F 87% 29.96 in 10.0 mi East 11.5 mph - N/A Rain Light Rain